Time,TemperatureF,DewpointF,PressureIn,WindDirection,WindDirectionDegrees,WindSpeedMPH,WindSpeedGustMPH,Humidity,HourlyPrecipIn,Conditions,Clouds,dailyrainin,SoftwareType,DateUTC
2013-05-06 00:00:00,42.2,38.6,27.63,East,92,0.0,0.0,87,0.00,,,0.00,Wunderground v.1.15,2013-05-06 04:00:00,
2013-05-06 00:05:00,41.9,38.3,27.63,East,92,0.0,0.0,87,0.00,,,0.00,Wunderground v.1.15,2013-05-06 04:05:00,
2013-05-06 00:10:00,41.6,38.0,27.63,East,92,0.0,0.0,87,0.00,,,0.00,Wunderground v.1.15,2013-05-06 04:10:00,
2013-05-06 00:15:00,41.5,37.9,27.63,East,92,0.0,0.0,87,0.00,,,0.00,Wunderground v.1.15,2013-05-06 04:15:00,
2013-05-06 00:20:00,41.4,38.1,27.63,East,92,0.0,0.0,88,0.00,,,0.00,Wunderground v.1.15,2013-05-06 04:20:00,
2013-05-06 00:25:00,41.4,38.1,27.63,East,92,0.0,0.0,88,0.00,,,0.00,Wunderground v.1.15,2013-05-06 04:25:00,
2013-05-06 00:30:00,41.4,38.4,27.63,East,92,0.0,0.0,89,0.00,,,0.00,Wunderground v.1.15,2013-05-06 04:30:00,
2013-05-06 00:35:00,41.4,38.4,27.63,East,92,0.0,0.0,89,0.00,,,0.00,Wunderground v.1.15,2013-05-06 04:35:00,
2013-05-06 00:40:00,41.3,38.3,27.63,East,92,0.0,0.0,89,0.00,,,0.00,Wunderground v.1.15,2013-05-06 04:40:00,
2013-05-06 00:45:00,41.1,38.1,27.63,East,92,0.0,0.0,89,0.00,,,0.00,Wunderground v.1.15,2013-05-06 04:45:00,
2013-05-06 00:55:00,41.1,38.4,27.63,East,92,0.0,0.0,90,0.00,,,0.00,Wunderground v.1.15,2013-05-06 04:55:00,
2013-05-06 01:00:00,41.2,38.5,27.63,East,92,0.0,0.0,90,0.00,,,0.00,Wunderground v.1.15,2013-05-06 05:00:00,
2013-05-06 01:10:00,41.6,38.9,27.63,East,92,0.0,0.0,90,0.00,,,0.00,Wunderground v.1.15,2013-05-06 05:10:00,
2013-05-06 01:15:00,41.7,39.0,27.63,East,92,0.0,0.0,90,0.00,,,0.00,Wunderground v.1.15,2013-05-06 05:15:00,
2013-05-06 01:20:00,41.7,39.0,27.63,East,92,0.0,0.0,90,0.00,,,0.00,Wunderground v.1.15,2013-05-06 05:20:00,
2013-05-06 01:25:00,41.5,38.8,27.63,East,92,0.0,0.0,90,0.00,,,0.00,Wunderground v.1.15,2013-05-06 05:25:00,
2013-05-06 01:30:00,41.4,38.7,27.63,East,92,0.0,0.0,90,0.00,,,0.00,Wunderground v.1.15,2013-05-06 05:30:00,
2013-05-06 01:35:00,41.1,38.4,27.63,East,92,0.0,0.0,90,0.00,,,0.00,Wunderground v.1.15,2013-05-06 05:35:00,
2013-05-06 01:40:00,41.1,38.4,27.63,East,92,0.0,0.0,90,0.00,,,0.00,Wunderground v.1.15,2013-05-06 05:40:00,
2013-05-06 01:45:00,41.0,38.3,27.63,East,92,0.0,0.0,90,0.00,,,0.00,Wunderground v.1.15,2013-05-06 05:45:00,
2013-05-06 01:55:00,42.0,39.8,27.63,East,92,0.0,0.0,92,0.00,,,0.00,Wunderground v.1.15,2013-05-06 05:55:00,
2013-05-06 02:00:00,42.3,40.1,27.63,East,92,0.0,0.0,92,0.00,,,0.00,Wunderground v.1.15,2013-05-06 06:00:00,
2013-05-06 02:10:00,42.7,40.5,27.63,East,92,0.0,0.0,92,0.00,,,0.00,Wunderground v.1.15,2013-05-06 06:10:00,
2013-05-06 02:15:00,42.8,40.6,27.63,East,92,0.0,0.0,92,0.00,,,0.00,Wunderground v.1.15,2013-05-06 06:15:00,
2013-05-06 02:20:00,42.8,40.6,27.63,East,92,0.0,0.0,92,0.00,,,0.00,Wunderground v.1.15,2013-05-06 06:20:00,
2013-05-06 02:25:00,42.8,40.6,27.63,East,92,0.0,0.0,92,0.00,,,0.00,Wunderground v.1.15,2013-05-06 06:25:00,
2013-05-06 02:30:00,42.8,40.6,27.63,East,92,0.0,0.0,92,0.00,,,0.00,Wunderground v.1.15,2013-05-06 06:30:00,
2013-05-06 02:40:00,42.9,40.7,27.63,East,92,0.0,0.0,92,0.00,,,0.00,Wunderground v.1.15,2013-05-06 06:40:00,
2013-05-06 02:45:00,43.0,40.8,27.63,East,92,0.0,0.0,92,0.00,,,0.00,Wunderground v.1.15,2013-05-06 06:45:00,
2013-05-06 02:55:00,43.1,40.9,27.63,East,92,0.0,0.0,92,0.00,,,0.00,Wunderground v.1.15,2013-05-06 06:55:00,
2013-05-06 03:00:00,43.2,41.0,27.63,East,92,0.0,0.0,92,0.00,,,0.00,Wunderground v.1.15,2013-05-06 07:00:00,
2013-05-06 03:10:00,43.4,41.2,27.63,East,92,0.0,0.0,92,0.00,,,0.00,Wunderground v.1.15,2013-05-06 07:10:00,
2013-05-06 03:15:00,43.4,41.2,27.63,East,92,0.0,0.0,92,0.00,,,0.00,Wunderground v.1.15,2013-05-06 07:15:00,
2013-05-06 03:20:00,43.5,41.3,27.63,East,92,0.0,0.0,92,0.00,,,0.00,Wunderground v.1.15,2013-05-06 07:20:00,
2013-05-06 03:25:00,43.6,41.4,27.63,East,92,0.0,0.0,92,0.00,,,0.00,Wunderground v.1.15,2013-05-06 07:25:00,
2013-05-06 03:30:00,43.6,41.4,27.63,East,92,0.0,0.0,92,0.00,,,0.00,Wunderground v.1.15,2013-05-06 07:30:00,
2013-05-06 03:40:00,43.7,41.5,27.63,East,92,0.0,0.0,92,0.00,,,0.00,Wunderground v.1.15,2013-05-06 07:40:00,
2013-05-06 03:50:00,43.7,41.5,27.08,East,92,0.0,0.0,92,0.00,,,0.00,Wunderground v.1.15,2013-05-06 07:50:00,
2013-05-06 03:55:00,43.8,41.6,27.08,East,92,0.0,0.0,92,0.00,,,0.00,Wunderground v.1.15,2013-05-06 07:55:00,
2013-05-06 04:00:00,43.9,41.7,27.08,East,92,0.0,0.0,92,0.00,,,0.00,Wunderground v.1.15,2013-05-06 08:00:00,
2013-05-06 04:10:00,44.0,41.8,27.08,East,92,0.0,0.0,92,0.00,,,0.00,Wunderground v.1.15,2013-05-06 08:10:00,
2013-05-06 04:15:00,44.1,41.9,27.08,East,92,0.0,0.0,92,0.00,,,0.00,Wunderground v.1.15,2013-05-06 08:15:00,
2013-05-06 04:20:00,44.1,41.9,27.08,East,92,0.0,0.0,92,0.00,,,0.00,Wunderground v.1.15,2013-05-06 08:20:00,
2013-05-06 04:25:00,44.2,42.3,27.08,East,92,0.0,0.0,93,0.00,,,0.00,Wunderground v.1.15,2013-05-06 08:25:00,
2013-05-06 04:30:00,44.4,42.5,27.08,East,92,0.0,0.0,93,0.00,,,0.00,Wunderground v.1.15,2013-05-06 08:30:00,
2013-05-06 04:40:00,44.6,42.7,27.08,East,92,0.0,0.0,93,0.00,,,0.00,Wunderground v.1.15,2013-05-06 08:40:00,
2013-05-06 04:45:00,44.7,42.8,27.08,East,92,0.0,0.0,93,0.00,,,0.00,Wunderground v.1.15,2013-05-06 08:45:00,
2013-05-06 04:50:00,44.7,42.8,27.08,East,92,0.0,0.0,93,0.00,,,0.00,Wunderground v.1.15,2013-05-06 08:50:00,
2013-05-06 05:00:00,44.9,43.0,28.20,East,92,0.0,0.0,93,0.00,,,0.00,Wunderground v.1.15,2013-05-06 09:00:00,
2013-05-06 05:10:00,45.0,43.1,28.20,East,92,0.0,0.0,93,0.00,,,0.00,Wunderground v.1.15,2013-05-06 09:10:00,
2013-05-06 05:15:00,45.0,43.1,28.20,East,92,0.0,0.0,93,0.00,,,0.00,Wunderground v.1.15,2013-05-06 09:15:00,
2013-05-06 05:25:00,45.1,43.2,28.20,East,92,0.0,0.0,93,0.00,,,0.00,Wunderground v.1.15,2013-05-06 09:25:00,
2013-05-06 05:30:00,45.1,43.2,28.20,East,92,0.0,0.0,93,0.00,,,0.00,Wunderground v.1.15,2013-05-06 09:30:00,
2013-05-06 05:35:00,45.2,43.3,28.20,East,92,0.0,0.0,93,0.00,,,0.00,Wunderground v.1.15,2013-05-06 09:35:00,
2013-05-06 05:40:00,45.3,43.4,28.20,East,92,0.0,0.0,93,0.00,,,0.00,Wunderground v.1.15,2013-05-06 09:40:00,
2013-05-06 05:45:00,45.3,43.1,28.20,East,92,0.0,0.0,92,0.00,,,0.00,Wunderground v.1.15,2013-05-06 09:45:00,
2013-05-06 05:50:00,45.4,43.5,28.20,East,92,0.0,0.0,93,0.00,,,0.00,Wunderground v.1.15,2013-05-06 09:50:00,
2013-05-06 05:55:00,45.4,43.5,28.20,East,92,0.0,0.0,93,0.00,,,0.00,Wunderground v.1.15,2013-05-06 09:55:00,
2013-05-06 06:00:00,45.5,43.6,28.20,East,92,0.0,0.0,93,0.00,,,0.00,Wunderground v.1.15,2013-05-06 10:00:00,
2013-05-06 06:10:00,45.5,43.6,28.20,East,92,0.0,0.0,93,0.00,,,0.00,Wunderground v.1.15,2013-05-06 10:10:00,
2013-05-06 06:15:00,45.6,43.4,28.20,East,92,0.0,0.0,92,0.00,,,0.00,Wunderground v.1.15,2013-05-06 10:15:00,
2013-05-06 06:25:00,45.7,43.5,28.20,East,92,0.0,0.0,92,0.00,,,0.00,Wunderground v.1.15,2013-05-06 10:25:00,
2013-05-06 06:30:00,45.8,43.6,28.20,East,92,0.0,0.0,92,0.00,,,0.00,Wunderground v.1.15,2013-05-06 10:30:00,
2013-05-06 06:35:00,45.9,43.7,28.20,East,92,0.0,0.0,92,0.00,,,0.00,Wunderground v.1.15,2013-05-06 10:35:00,
2013-05-06 06:40:00,45.9,43.7,28.20,East,92,0.0,0.0,92,0.00,,,0.00,Wunderground v.1.15,2013-05-06 10:40:00,
2013-05-06 06:45:00,46.0,43.8,28.20,East,92,0.0,0.0,92,0.00,,,0.00,Wunderground v.1.15,2013-05-06 10:45:00,
2013-05-06 06:50:00,46.1,43.9,28.20,East,92,0.0,0.0,92,0.00,,,0.00,Wunderground v.1.15,2013-05-06 10:50:00,
2013-05-06 06:55:00,46.2,44.0,28.20,East,92,0.0,0.0,92,0.00,,,0.00,Wunderground v.1.15,2013-05-06 10:55:00,
2013-05-06 07:00:00,46.3,44.1,28.20,East,92,0.0,0.0,92,0.00,,,0.00,Wunderground v.1.15,2013-05-06 11:00:00,
2013-05-06 07:10:00,46.6,44.4,29.74,East,92,0.0,0.0,92,0.00,,,0.00,Wunderground v.1.15,2013-05-06 11:10:00,
2013-05-06 07:15:00,46.7,44.5,29.74,East,92,0.0,0.0,92,0.00,,,0.00,Wunderground v.1.15,2013-05-06 11:15:00,
2013-05-06 07:20:00,46.8,44.6,29.74,East,92,0.0,0.0,92,0.00,,,0.00,Wunderground v.1.15,2013-05-06 11:20:00,
2013-05-06 07:25:00,47.0,44.8,29.74,East,92,0.0,0.0,92,0.00,,,0.00,Wunderground v.1.15,2013-05-06 11:25:00,
2013-05-06 07:30:00,47.2,45.0,29.74,East,92,0.0,0.0,92,0.00,,,0.00,Wunderground v.1.15,2013-05-06 11:30:00,
2013-05-06 07:35:00,47.2,44.7,29.74,East,92,0.0,0.0,91,0.00,,,0.00,Wunderground v.1.15,2013-05-06 11:35:00,
2013-05-06 07:40:00,47.4,44.9,29.74,East,92,0.0,0.0,91,0.00,,,0.00,Wunderground v.1.15,2013-05-06 11:40:00,
2013-05-06 07:50:00,47.6,45.1,29.74,East,92,0.0,0.0,91,0.00,,,0.00,Wunderground v.1.15,2013-05-06 11:50:00,
2013-05-06 07:55:00,47.8,45.3,29.74,East,92,0.0,0.0,91,0.00,,,0.00,Wunderground v.1.15,2013-05-06 11:55:00,
2013-05-06 08:00:00,47.9,45.4,29.74,East,92,0.0,0.0,91,0.00,,,0.00,Wunderground v.1.15,2013-05-06 12:00:00,
2013-05-06 08:10:00,48.3,45.8,29.74,East,90,0.0,0.0,91,0.00,,,0.00,Wunderground v.1.15,2013-05-06 12:10:00,
2013-05-06 08:15:00,48.5,45.7,29.74,East,90,0.0,0.0,90,0.00,,,0.00,Wunderground v.1.15,2013-05-06 12:15:00,
2013-05-06 08:20:00,48.5,45.7,29.74,East,90,0.0,0.0,90,0.00,,,0.00,Wunderground v.1.15,2013-05-06 12:20:00,
2013-05-06 08:25:00,48.5,45.7,29.74,East,90,0.0,0.0,90,0.00,,,0.00,Wunderground v.1.15,2013-05-06 12:25:00,
2013-05-06 08:30:00,48.8,46.0,29.74,East,90,0.0,0.0,90,0.00,,,0.00,Wunderground v.1.15,2013-05-06 12:30:00,
2013-05-06 08:35:00,49.2,46.4,29.74,East,88,0.0,4.0,90,0.00,,,0.00,Wunderground v.1.15,2013-05-06 12:35:00,
2013-05-06 08:40:00,49.5,46.4,29.74,East,88,0.0,0.0,89,0.00,,,0.00,Wunderground v.1.15,2013-05-06 12:40:00,
2013-05-06 08:45:00,49.9,46.8,29.74,East,88,0.0,0.0,89,0.00,,,0.00,Wunderground v.1.15,2013-05-06 12:45:00,
2013-05-06 08:55:00,50.6,47.2,29.74,East,88,0.0,1.0,88,0.00,,,0.00,Wunderground v.1.15,2013-05-06 12:55:00,
2013-05-06 09:00:00,50.7,47.0,29.74,East,88,0.0,0.0,87,0.00,,,0.00,Wunderground v.1.15,2013-05-06 13:00:00,
2013-05-06 09:10:00,51.0,47.0,29.74,East,88,0.0,0.0,86,0.00,,,0.00,Wunderground v.1.15,2013-05-06 13:10:00,
2013-05-06 09:15:00,51.0,47.0,29.74,East,88,0.0,1.0,86,0.00,,,0.00,Wunderground v.1.15,2013-05-06 13:15:00,
2013-05-06 09:20:00,51.2,47.5,29.74,East,88,0.0,0.0,87,0.00,,,0.00,Wunderground v.1.15,2013-05-06 13:20:00,
2013-05-06 09:30:00,51.7,47.6,29.74,East,88,0.0,0.0,86,0.00,,,0.00,Wunderground v.1.15,2013-05-06 13:30:00,
2013-05-06 09:35:00,51.9,47.8,29.74,East,88,0.0,0.0,86,0.00,,,0.00,Wunderground v.1.15,2013-05-06 13:35:00,
2013-05-06 09:40:00,52.2,47.8,29.74,East,88,0.0,0.0,85,0.00,,,0.00,Wunderground v.1.15,2013-05-06 13:40:00,
2013-05-06 09:45:00,52.4,47.7,29.74,East,88,0.0,0.0,84,0.00,,,0.00,Wunderground v.1.15,2013-05-06 13:45:00,
2013-05-06 09:55:00,52.6,47.9,29.74,East,88,0.0,0.0,84,0.00,,,0.00,Wunderground v.1.15,2013-05-06 13:55:00,
2013-05-06 10:00:00,52.7,48.0,29.74,East,88,0.0,0.0,84,0.00,,,0.00,Wunderground v.1.15,2013-05-06 14:00:00,
2013-05-06 10:10:00,53.6,48.2,29.74,East,88,1.0,1.0,82,0.00,,,0.00,Wunderground v.1.15,2013-05-06 14:10:00,
2013-05-06 10:15:00,53.9,48.5,29.74,East,88,0.0,1.0,82,0.00,,,0.00,Wunderground v.1.15,2013-05-06 14:15:00,
2013-05-06 10:20:00,54.3,48.9,29.74,East,88,0.0,0.0,82,0.00,,,0.00,Wunderground v.1.15,2013-05-06 14:20:00,
2013-05-06 10:25:00,54.5,48.8,29.74,East,83,1.0,1.0,81,0.00,,,0.00,Wunderground v.1.15,2013-05-06 14:25:00,
2013-05-06 10:30:00,54.7,49.3,29.74,East,84,0.0,1.0,82,0.00,,,0.00,Wunderground v.1.15,2013-05-06 14:30:00,
2013-05-06 10:35:00,54.9,49.5,29.74,East,83,0.0,1.0,82,0.00,,,0.00,Wunderground v.1.15,2013-05-06 14:35:00,
2013-05-06 10:40:00,55.3,49.2,29.74,East,82,0.0,0.0,80,0.00,,,0.00,Wunderground v.1.15,2013-05-06 14:40:00,
2013-05-06 10:45:00,55.5,49.8,29.74,East,82,0.0,2.0,81,0.00,,,0.00,Wunderground v.1.15,2013-05-06 14:45:00,
2013-05-06 10:55:00,56.1,50.3,29.74,East,82,1.0,1.0,81,0.00,,,0.00,Wunderground v.1.15,2013-05-06 14:55:00,
2013-05-06 11:00:00,56.7,50.9,29.74,East,82,0.0,0.0,81,0.00,,,0.00,Wunderground v.1.15,2013-05-06 15:00:00,
2013-05-06 11:10:00,57.2,51.1,29.74,East,82,0.0,0.0,80,0.00,,,0.00,Wunderground v.1.15,2013-05-06 15:10:00,
2013-05-06 11:15:00,57.5,50.7,29.74,East,82,0.0,0.0,78,0.00,,,0.00,Wunderground v.1.15,2013-05-06 15:15:00,
2013-05-06 11:20:00,57.7,51.2,29.74,East,82,0.0,0.0,79,0.00,,,0.00,Wunderground v.1.15,2013-05-06 15:20:00,
2013-05-06 11:25:00,57.8,50.6,29.74,East,82,1.0,1.0,77,0.00,,,0.00,Wunderground v.1.15,2013-05-06 15:25:00,
2013-05-06 11:30:00,57.9,51.1,29.74,East,82,0.0,0.0,78,0.00,,,0.00,Wunderground v.1.15,2013-05-06 15:30:00,
2013-05-06 11:40:00,58.2,51.4,29.74,East,82,0.0,0.0,78,0.00,,,0.00,Wunderground v.1.15,2013-05-06 15:40:00,
2013-05-06 11:45:00,58.3,51.1,29.74,East,82,0.0,0.0,77,0.00,,,0.00,Wunderground v.1.15,2013-05-06 15:45:00,
2013-05-06 11:55:00,58.5,51.7,29.74,East,82,1.0,2.0,78,0.00,,,0.00,Wunderground v.1.15,2013-05-06 15:55:00,
2013-05-06 12:00:00,58.6,51.4,29.74,East,82,1.0,1.0,77,0.00,,,0.00,Wunderground v.1.15,2013-05-06 16:00:00,
2013-05-06 12:10:00,59.0,51.1,29.74,East,89,1.0,1.0,75,0.00,,,0.00,Wunderground v.1.15,2013-05-06 16:10:00,
2013-05-06 12:20:00,60.2,53.0,29.74,East,79,0.0,0.0,77,0.00,,,0.00,Wunderground v.1.15,2013-05-06 16:20:00,
2013-05-06 12:25:00,60.7,52.7,29.74,ENE,78,1.0,2.0,75,0.00,,,0.00,Wunderground v.1.15,2013-05-06 16:25:00,
2013-05-06 12:30:00,60.3,51.6,29.74,ENE,78,1.0,1.0,73,0.00,,,0.00,Wunderground v.1.15,2013-05-06 16:30:00,
2013-05-06 12:40:00,60.6,53.0,29.74,ENE,78,0.0,1.0,76,0.00,,,0.00,Wunderground v.1.15,2013-05-06 16:40:00,
2013-05-06 12:45:00,61.1,53.1,29.74,ENE,78,1.0,2.0,75,0.00,,,0.00,Wunderground v.1.15,2013-05-06 16:45:00,
2013-05-06 12:50:00,61.3,52.6,29.74,ENE,78,1.0,1.0,73,0.00,,,0.00,Wunderground v.1.15,2013-05-06 16:50:00,
2013-05-06 12:55:00,61.7,53.0,29.74,East,81,1.0,4.0,73,0.00,,,0.00,Wunderground v.1.15,2013-05-06 16:55:00,
2013-05-06 13:00:00,61.8,52.7,29.74,East,84,1.0,1.0,72,0.00,,,0.00,Wunderground v.1.15,2013-05-06 17:00:00,
2013-05-06 13:10:00,62.9,54.5,29.74,East,84,1.0,5.0,74,0.00,,,0.00,Wunderground v.1.15,2013-05-06 17:10:00,
2013-05-06 13:15:00,63.6,54.4,29.74,East,83,1.0,5.0,72,0.00,,,0.00,Wunderground v.1.15,2013-05-06 17:15:00,
2013-05-06 13:25:00,64.1,53.7,29.74,East,90,1.0,2.0,69,0.00,,,0.00,Wunderground v.1.15,2013-05-06 17:25:00,
2013-05-06 13:30:00,64.3,54.3,29.74,East,91,1.0,1.0,70,0.00,,,0.00,Wunderground v.1.15,2013-05-06 17:30:00,
2013-05-06 13:40:00,64.5,53.3,29.74,East,94,0.0,0.0,67,0.00,,,0.00,Wunderground v.1.15,2013-05-06 17:40:00,
2013-05-06 13:45:00,64.2,54.2,29.74,ENE,69,1.0,2.0,70,0.00,,,0.00,Wunderground v.1.15,2013-05-06 17:45:00,
2013-05-06 13:50:00,64.3,53.9,29.74,ENE,71,1.0,4.0,69,0.00,,,0.00,Wunderground v.1.15,2013-05-06 17:50:00,
2013-05-06 13:55:00,64.3,54.3,29.74,ENE,71,1.0,4.0,70,0.00,,,0.00,Wunderground v.1.15,2013-05-06 17:55:00,
2013-05-06 14:00:00,64.9,54.1,29.74,East,83,1.0,1.0,68,0.00,,,0.00,Wunderground v.1.15,2013-05-06 18:00:00,
2013-05-06 14:10:00,65.4,55.4,29.74,East,90,0.0,0.0,70,0.00,,,0.00,Wunderground v.1.15,2013-05-06 18:10:00,
2013-05-06 14:15:00,65.7,54.8,29.74,East,90,1.0,1.0,68,0.00,,,0.00,Wunderground v.1.15,2013-05-06 18:15:00,
2013-05-06 14:25:00,66.3,54.6,29.74,East,84,1.0,1.0,66,0.00,,,0.00,Wunderground v.1.15,2013-05-06 18:25:00,
2013-05-06 14:30:00,66.7,55.0,29.74,East,84,0.0,0.0,66,0.00,,,0.00,Wunderground v.1.15,2013-05-06 18:30:00,
2013-05-06 14:35:00,67.2,55.9,29.74,East,82,0.0,0.0,67,0.00,,,0.00,Wunderground v.1.15,2013-05-06 18:35:00,
2013-05-06 14:40:00,67.6,55.4,29.74,East,82,0.0,0.0,65,0.00,,,0.00,Wunderground v.1.15,2013-05-06 18:40:00,
2013-05-06 14:45:00,67.7,56.3,29.74,ENE,72,1.0,1.0,67,0.00,,,0.00,Wunderground v.1.15,2013-05-06 18:45:00,
2013-05-06 14:50:00,67.6,55.0,29.74,ENE,72,1.0,1.0,64,0.00,,,0.00,Wunderground v.1.15,2013-05-06 18:50:00,
2013-05-06 14:55:00,67.7,55.9,29.74,East,84,1.0,5.0,66,0.00,,,0.00,Wunderground v.1.15,2013-05-06 18:55:00,
2013-05-06 15:00:00,67.4,54.8,29.74,East,85,1.0,1.0,64,0.00,,,0.00,Wunderground v.1.15,2013-05-06 19:00:00,
2013-05-06 15:10:00,67.5,55.7,29.74,ESE,107,1.0,7.0,66,0.00,,,0.00,Wunderground v.1.15,2013-05-06 19:10:00,
2013-05-06 15:15:00,67.0,54.4,29.74,ESE,108,1.0,7.0,64,0.00,,,0.00,Wunderground v.1.15,2013-05-06 19:15:00,
2013-05-06 15:25:00,67.4,55.6,29.74,ESE,109,1.0,5.0,66,0.00,,,0.00,Wunderground v.1.15,2013-05-06 19:25:00,
2013-05-06 15:30:00,67.9,56.1,29.74,ESE,109,1.0,5.0,66,0.00,,,0.00,Wunderground v.1.15,2013-05-06 19:30:00,
2013-05-06 15:35:00,68.0,55.8,29.74,ESE,110,1.0,5.0,65,0.00,,,0.00,Wunderground v.1.15,2013-05-06 19:35:00,
2013-05-06 15:45:00,68.4,55.7,29.74,NNE,33,1.0,1.0,64,0.00,,,0.00,Wunderground v.1.15,2013-05-06 19:45:00,
2013-05-06 15:50:00,68.8,56.6,29.74,NE,39,1.0,1.0,65,0.00,,,0.00,Wunderground v.1.15,2013-05-06 19:50:00,
2013-05-06 15:55:00,68.8,56.1,29.74,NE,49,1.0,1.0,64,0.00,,,0.00,Wunderground v.1.15,2013-05-06 19:55:00,
2013-05-06 16:00:00,69.0,56.7,29.74,NE,50,1.0,6.0,65,0.00,,,0.00,Wunderground v.1.15,2013-05-06 20:00:00,
2013-05-06 16:10:00,69.2,56.1,29.74,NE,46,1.0,1.0,63,0.00,,,0.00,Wunderground v.1.15,2013-05-06 20:10:00,
2013-05-06 16:20:00,68.7,56.0,29.74,ENE,77,1.0,1.0,64,0.00,,,0.00,Wunderground v.1.15,2013-05-06 20:20:00,
2013-05-06 16:25:00,69.0,57.2,29.74,ENE,65,1.0,1.0,66,0.00,,,0.00,Wunderground v.1.15,2013-05-06 20:25:00,
2013-05-06 16:30:00,69.5,56.8,29.74,ENE,68,1.0,1.0,64,0.00,,,0.00,Wunderground v.1.15,2013-05-06 20:30:00,
2013-05-06 16:35:00,69.9,56.3,29.74,ESE,103,1.0,1.0,62,0.00,,,0.00,Wunderground v.1.15,2013-05-06 20:35:00,
2013-05-06 16:40:00,69.4,56.7,29.74,ESE,103,1.0,1.0,64,0.00,,,0.00,Wunderground v.1.15,2013-05-06 20:40:00,
2013-05-06 16:45:00,68.8,55.7,29.74,ESE,113,1.0,1.0,63,0.00,,,0.00,Wunderground v.1.15,2013-05-06 20:45:00,
2013-05-06 16:50:00,68.5,55.8,29.74,ESE,103,1.0,1.0,64,0.00,,,0.00,Wunderground v.1.15,2013-05-06 20:50:00,
2013-05-06 16:55:00,68.8,55.2,29.74,East,98,1.0,2.0,62,0.00,,,0.00,Wunderground v.1.15,2013-05-06 20:55:00,
2013-05-06 17:00:00,68.9,55.8,29.74,East,98,1.0,1.0,63,0.00,,,0.00,Wunderground v.1.15,2013-05-06 21:00:00,
2013-05-06 17:10:00,68.7,56.0,29.74,ESE,103,0.0,1.0,64,0.00,,,0.00,Wunderground v.1.15,2013-05-06 21:10:00,
2013-05-06 17:15:00,68.8,55.7,29.74,ESE,104,1.0,1.0,63,0.00,,,0.00,Wunderground v.1.15,2013-05-06 21:15:00,
2013-05-06 17:20:00,69.0,55.9,29.74,ESE,105,0.0,0.0,63,0.00,,,0.00,Wunderground v.1.15,2013-05-06 21:20:00,
2013-05-06 17:30:00,68.9,56.2,29.74,ESE,105,1.0,2.0,64,0.00,,,0.00,Wunderground v.1.15,2013-05-06 21:30:00,
2013-05-06 17:35:00,68.9,56.2,29.74,ESE,105,1.0,2.0,64,0.00,,,0.00,Wunderground v.1.15,2013-05-06 21:35:00,
2013-05-06 17:40:00,69.1,56.8,29.74,ESE,105,0.0,0.0,65,0.00,,,0.00,Wunderground v.1.15,2013-05-06 21:40:00,
2013-05-06 17:45:00,69.0,56.3,29.74,ESE,105,0.0,0.0,64,0.00,,,0.00,Wunderground v.1.15,2013-05-06 21:45:00,
2013-05-06 17:50:00,69.1,56.8,29.74,ESE,105,0.0,0.0,65,0.00,,,0.00,Wunderground v.1.15,2013-05-06 21:50:00,
2013-05-06 18:00:00,68.4,56.2,29.74,ESE,105,0.0,0.0,65,0.00,,,0.00,Wunderground v.1.15,2013-05-06 22:00:00,
2013-05-06 18:10:00,67.0,55.7,29.74,ESE,106,1.0,1.0,67,0.00,,,0.00,Wunderground v.1.15,2013-05-06 22:10:00,
2013-05-06 18:15:00,66.6,55.7,29.74,ESE,106,1.0,1.0,68,0.00,,,0.00,Wunderground v.1.15,2013-05-06 22:15:00,
2013-05-06 18:20:00,66.6,56.1,29.74,ESE,106,1.0,3.0,69,0.00,,,0.00,Wunderground v.1.15,2013-05-06 22:20:00,
2013-05-06 18:25:00,66.5,56.0,29.74,ESE,106,1.0,3.0,69,0.00,,,0.00,Wunderground v.1.15,2013-05-06 22:25:00,
2013-05-06 18:35:00,66.3,56.2,29.74,ESE,106,0.0,1.0,70,0.00,,,0.00,Wunderground v.1.15,2013-05-06 22:35:00,
2013-05-06 18:40:00,66.1,56.0,29.74,ESE,106,0.0,0.0,70,0.00,,,0.00,Wunderground v.1.15,2013-05-06 22:40:00,
2013-05-06 18:45:00,65.8,56.1,29.74,ESE,106,0.0,4.0,71,0.00,,,0.00,Wunderground v.1.15,2013-05-06 22:45:00,
2013-05-06 18:50:00,65.2,55.6,29.74,East,100,1.0,1.0,71,0.00,,,0.00,Wunderground v.1.15,2013-05-06 22:50:00,
2013-05-06 18:55:00,64.5,55.3,29.74,East,100,1.0,1.0,72,0.00,,,0.00,Wunderground v.1.15,2013-05-06 22:55:00,
2013-05-06 19:00:00,63.9,55.4,29.74,East,99,0.0,0.0,74,0.00,,,0.00,Wunderground v.1.15,2013-05-06 23:00:00,
2013-05-06 19:10:00,63.7,55.3,29.74,East,99,0.0,0.0,74,0.00,,,0.00,Wunderground v.1.15,2013-05-06 23:10:00,
2013-05-06 19:15:00,63.6,55.2,29.74,East,100,0.0,0.0,74,0.00,,,0.00,Wunderground v.1.15,2013-05-06 23:15:00,
2013-05-06 19:20:00,63.2,54.4,29.74,East,100,0.0,1.0,73,0.00,,,0.00,Wunderground v.1.15,2013-05-06 23:20:00,
2013-05-06 19:25:00,62.8,54.4,29.74,East,100,0.0,2.0,74,0.00,,,0.00,Wunderground v.1.15,2013-05-06 23:25:00,
2013-05-06 19:30:00,62.5,54.5,29.74,East,99,0.0,0.0,75,0.00,,,0.00,Wunderground v.1.15,2013-05-06 23:30:00,
2013-05-06 19:35:00,62.1,54.1,29.74,East,99,0.0,4.0,75,0.00,,,0.00,Wunderground v.1.15,2013-05-06 23:35:00,
2013-05-06 19:45:00,61.2,53.6,29.74,East,100,1.0,1.0,76,0.00,,,0.00,Wunderground v.1.15,2013-05-06 23:45:00,
2013-05-06 19:55:00,60.5,53.3,29.74,East,99,0.0,2.0,77,0.00,,,0.00,Wunderground v.1.15,2013-05-06 23:55:00,
2013-05-06 20:00:00,60.2,53.3,29.74,East,100,0.0,0.0,78,0.00,,,0.00,Wunderground v.1.15,2013-05-07 00:00:00,
2013-05-06 20:10:00,59.5,53.0,29.74,East,100,0.0,0.0,79,0.00,,,0.00,Wunderground v.1.15,2013-05-07 00:10:00,
2013-05-06 20:20:00,59.0,52.8,29.74,East,100,0.0,0.0,80,0.00,,,0.00,Wunderground v.1.15,2013-05-07 00:20:00,
2013-05-06 20:25:00,58.5,52.7,29.74,East,100,0.0,0.0,81,0.00,,,0.00,Wunderground v.1.15,2013-05-07 00:25:00,
2013-05-06 20:30:00,58.1,52.6,29.74,East,99,0.0,0.0,82,0.00,,,0.00,Wunderground v.1.15,2013-05-07 00:30:00,
2013-05-06 20:35:00,57.7,52.2,29.74,East,99,0.0,0.0,82,0.00,,,0.00,Wunderground v.1.15,2013-05-07 00:35:00,
2013-05-06 20:40:00,57.3,52.2,29.74,East,100,0.0,0.0,83,0.00,,,0.00,Wunderground v.1.15,2013-05-07 00:40:00,
2013-05-06 20:50:00,56.6,51.8,29.74,East,99,0.0,0.0,84,0.00,,,0.00,Wunderground v.1.15,2013-05-07 00:50:00,
2013-05-06 20:55:00,56.3,51.5,29.74,East,100,0.0,0.0,84,0.00,,,0.00,Wunderground v.1.15,2013-05-07 00:55:00,
2013-05-06 21:00:00,56.0,51.2,29.74,East,100,0.0,0.0,84,0.00,,,0.00,Wunderground v.1.15,2013-05-07 01:00:00,
2013-05-06 21:10:00,55.3,50.9,29.74,East,99,0.0,0.0,85,0.00,,,0.00,Wunderground v.1.15,2013-05-07 01:10:00,
2013-05-06 21:15:00,55.0,50.6,29.74,East,99,0.0,0.0,85,0.00,,,0.00,Wunderground v.1.15,2013-05-07 01:15:00,
2013-05-06 21:20:00,54.6,50.5,29.74,East,99,0.0,0.0,86,0.00,,,0.00,Wunderground v.1.15,2013-05-07 01:20:00,
2013-05-06 21:25:00,54.3,50.2,29.74,East,99,0.0,0.0,86,0.00,,,0.00,Wunderground v.1.15,2013-05-07 01:25:00,
2013-05-06 21:30:00,54.0,50.2,29.74,East,100,0.0,0.0,87,0.00,,,0.00,Wunderground v.1.15,2013-05-07 01:30:00,
2013-05-06 21:35:00,53.7,49.9,29.74,East,100,0.0,0.0,87,0.00,,,0.00,Wunderground v.1.15,2013-05-07 01:35:00,
2013-05-06 21:40:00,53.4,49.9,29.74,East,100,0.0,0.0,88,0.00,,,0.00,Wunderground v.1.15,2013-05-07 01:40:00,
2013-05-06 21:45:00,53.2,49.7,29.74,East,100,0.0,0.0,88,0.00,,,0.00,Wunderground v.1.15,2013-05-07 01:45:00,
2013-05-06 21:55:00,53.0,49.8,29.74,East,100,0.0,0.0,89,0.00,,,0.00,Wunderground v.1.15,2013-05-07 01:55:00,
2013-05-06 22:00:00,52.9,49.7,29.74,East,99,0.0,0.0,89,0.00,,,0.00,Wunderground v.1.15,2013-05-07 02:00:00,
2013-05-06 22:10:00,52.7,49.8,29.74,East,100,0.0,0.0,90,0.00,,,0.00,Wunderground v.1.15,2013-05-07 02:10:00,
2013-05-06 22:15:00,52.6,49.8,29.74,East,100,0.0,0.0,90,0.00,,,0.00,Wunderground v.1.15,2013-05-07 02:15:00,
2013-05-06 22:20:00,52.5,49.7,29.74,East,100,0.0,0.0,90,0.00,,,0.00,Wunderground v.1.15,2013-05-07 02:20:00,
2013-05-06 22:25:00,52.3,49.5,29.74,East,99,0.0,0.0,90,0.00,,,0.00,Wunderground v.1.15,2013-05-07 02:25:00,
2013-05-06 22:35:00,51.9,49.1,29.74,East,100,0.0,0.0,90,0.00,,,0.00,Wunderground v.1.15,2013-05-07 02:35:00,
2013-05-06 22:40:00,51.6,48.8,29.74,East,100,0.0,0.0,90,0.00,,,0.00,Wunderground v.1.15,2013-05-07 02:40:00,
2013-05-06 22:45:00,51.5,48.7,29.74,East,99,0.0,0.0,90,0.00,,,0.00,Wunderground v.1.15,2013-05-07 02:45:00,
2013-05-06 22:55:00,51.3,48.8,29.74,East,100,0.0,0.0,91,0.00,,,0.00,Wunderground v.1.15,2013-05-07 02:55:00,
2013-05-06 23:00:00,51.2,48.7,29.74,East,99,0.0,0.0,91,0.00,,,0.00,Wunderground v.1.15,2013-05-07 03:00:00,
2013-05-06 23:10:00,51.2,48.7,29.74,East,100,0.0,0.0,91,0.00,,,0.00,Wunderground v.1.15,2013-05-07 03:10:00,
2013-05-06 23:15:00,51.2,48.7,29.74,East,100,0.0,0.0,91,0.00,,,0.00,Wunderground v.1.15,2013-05-07 03:15:00,
2013-05-06 23:20:00,51.2,49.0,29.74,East,100,0.0,0.0,92,0.00,,,0.00,Wunderground v.1.15,2013-05-07 03:20:00,
2013-05-06 23:25:00,51.2,49.0,29.74,East,99,0.0,0.0,92,0.00,,,0.00,Wunderground v.1.15,2013-05-07 03:25:00,
2013-05-06 23:30:00,51.1,48.9,29.74,East,100,0.0,0.0,92,0.00,,,0.00,Wunderground v.1.15,2013-05-07 03:30:00,
2013-05-06 23:40:00,50.8,48.6,29.74,East,99,0.0,0.0,92,0.00,,,0.00,Wunderground v.1.15,2013-05-07 03:40:00,
2013-05-06 23:45:00,50.7,48.5,29.74,East,100,0.0,0.0,92,0.00,,,0.00,Wunderground v.1.15,2013-05-07 03:45:00,
2013-05-06 23:55:00,50.5,48.3,29.74,East,100,0.0,0.0,92,0.00,,,0.00,Wunderground v.1.15,2013-05-07 03:55:00,